Starlink 1494

operational
NORAD ID: 45760 Int'l Des: 2020-038 Owner: SPXS Country: US Constellation: starlink
LEOCIRCULAR

Starlink 1494について

説明を読み込み中...

リアルタイム位置

3D地球を読み込み中...

次回通過

高度履歴

Altitude vs Time

uPlot chart will show altitude changes over time

軌道要素

1 45760U 20038AG 26034.76772352 .00078637 00000-0 70787-3 0 9992
2 45760 53.0525 319.4477 0002198 137.8761 222.2424 15.67541346312064
Epoch: Feb 3, 2026 • Age: 23 hours

現在のステータス

高度 368.1 km
速度 7.69 km/s
衛星直下点 42.14°N, 48.63°E
打ち上げ日 Jun 13, 2020
運用期間 5.6 years
タイプ internet

技術仕様

分類 Payload
質量 260.00 kg
乾燥質量 248.00 kg
総質量 260.00 kg
長さ 0.20 m
直径 2.80 m
スパン 9.00 m
形状 Box + pan
製造者 SPXS
バスタイプ Starlink
フェーズステータス In Orbit
所有者/国 SPXS/US

大規模コンステレーション

Loading constellations...